OH2NJR Weather Reports


Display with metric or nautical units.
time (UTC)temp
F
wind
direction
speed
MPH
gust
MPH
rain 1hr
in
rain 24hr
in
rain mn
in
humidity
%
barometer
mb
20260901230840 58 320 0.0 1.0 0.00 0.00 0.00 98 1007.5
20260901225229 58 334 1.0 2.0 0.00 0.00 0.00 98 1007.5
20260901223408 59 317 1.0 4.0 0.00 0.00 0.00 98 1007.6
20260901221428 59 127 0.0 2.0 0.00 0.00 0.00 98 1007.5
20260901215537 59 46 1.0 2.0 0.00 0.00 0.00 98 1007.4
20260901213728 59 65 1.0 2.0 0.00 0.00 0.00 98 1007.6
20260901212113 59 28 1.0 3.0 0.00 0.00 0.00 98 1007.6
20260901210520 0 33 0.0 1.0 0.00 0.00 0.00 98 1007.5
20260901210518 59 33 0.0 1.0 0.00 0.00 0.00 98 1007.5
20260901204833 60 190 2.0 2.0 0.00 0.00 0.00 97 1007.7
20260901202938 60 189 1.0 2.0 0.00 0.00 0.00 96 1007.6
20260901202933 60 189 1.0 2.0 0.00 0.00 0.00 96 1007.6
20260901201213 60 188 1.0 2.0 0.00 0.00 0.00 96 1007.6
20260901195338 60 32 1.0 2.0 0.00 0.00 0.00 95 1007.7
20260901193438 60 133 1.0 2.0 0.00 0.00 0.00 95 1007.7
20260901191555 61 179 1.0 6.0 0.00 0.00 0.00 94 1007.7
20260901191553 61 179 1.0 6.0 0.00 0.00 0.00 94 1007.7
20260901185723 61 207 1.0 4.0 0.00 0.00 0.00 94 1007.7
20260901184036 61 186 2.0 3.0 0.00 0.00 0.00 93 1007.8
20260901182037 61 176 1.0 3.0 0.00 0.00 0.00 92 1007.7
20260901180428 62 168 1.0 4.0 0.00 0.00 0.00 92 1007.7
20260901174708 62 188 1.0 2.0 0.00 0.00 0.00 92 1007.7
20260901173106 62 211 2.0 4.0 0.00 0.00 0.00 92 1007.8
20260901171243 62 197 3.0 7.0 0.00 0.00 0.00 92 1007.8
20260901165553 63 183 3.0 5.0 0.00 0.00 0.00 89 1007.8
20260901163813 64 175 3.0 6.0 0.00 0.00 0.00 86 1007.9
20260901161908 64 103 6.0 6.0 0.00 0.00 0.00 85 1008.0
20260901161903 64 195 3.0 6.0 0.00 0.00 0.00 85 1008.0
20260901160213 63 188 3.0 7.0 0.00 0.00 0.00 88 1008.0
20260901154433 64 217 2.0 5.0 0.00 0.00 0.00 86 1008.0
20260901154428 64 217 2.0 5.0 0.00 0.00 0.00 86 1008.0
20260901152743 64 184 3.0 5.0 0.00 0.00 0.00 85 1008.1
20260901151050 65 207 2.0 6.0 0.00 0.00 0.00 82 1008.1
20260901145418 64 198 4.0 6.0 0.00 0.00 0.00 83 1008.0
20260901143722 64 197 2.0 4.0 0.00 0.00 0.00 82 1008.2
20260901141755 65 145 2.0 4.0 0.00 0.00 0.00 80 1008.2
20260901141748 65 145 2.0 4.0 0.00 0.00 0.00 80 1008.2
20260901140033 66 181 2.0 7.0 0.00 0.00 0.00 75 1008.3
20260901134058 65 192 2.0 5.0 0.00 0.00 0.00 76 1008.3
20260901132221 66 84 1.0 2.0 0.00 0.00 0.00 74 1008.2
20260901132218 66 84 1.0 2.0 0.00 0.00 0.00 74 1008.2
20260901130458 66 215 2.0 7.0 0.00 0.00 0.00 76 1008.2
20260901124710 64 123 1.0 4.0 0.00 0.00 0.00 82 1008.6
20260901122713 64 183 2.0 4.0 0.00 0.00 0.00 81 1008.8
20260901121028 64 191 3.0 8.0 0.00 0.00 0.00 82 1008.8
20260901115353 64 200 5.0 11.0 0.00 0.00 0.00 82 1008.8
20260901113552 63 136 2.0 7.0 0.00 0.00 0.00 84 1008.7
20260901111923 63 180 2.0 5.0 0.00 0.00 0.00 84 1008.8
20260901110003 63 191 4.0 6.0 0.00 0.00 0.00 83 1008.7
20260901104103 63 201 3.0 7.0 0.00 0.00 0.00 84 1008.6
20260901102253 63 197 6.0 11.0 0.00 0.00 0.00 85 1008.6
20260901100633 62 203 7.0 14.0 0.00 0.00 0.00 85 1008.5
20260901094908 63 179 3.0 7.0 0.00 0.00 0.00 84 1008.4
20260901093113 64 199 4.0 8.0 0.00 0.00 0.00 83 1008.4
20260901091202 62 193 2.0 9.0 0.00 0.00 0.00 86 1008.3
20260901085513 62 210 1.0 2.0 0.00 0.00 0.00 89 1008.2
20260901085511 62 210 1.0 2.0 0.00 0.00 0.00 89 1008.2
20260901083618 62 120 1.0 4.0 0.00 0.01 0.00 89 1008.2
20260901082003 62 197 3.0 8.0 0.00 0.01 0.00 90 1008.1
20260901080323 62 187 2.0 4.0 0.00 0.04 0.00 91 1008.2
20260901074348 62 180 3.0 7.0 0.00 0.07 0.00 89 1008.2
20260901072643 63 175 1.0 2.0 0.00 0.07 0.00 89 1008.2
20260901070728 62 173 0.0 2.0 0.00 0.07 0.00 91 1008.0
20260901065049 62 200 2.0 5.0 0.00 0.07 0.00 91 1008.0
20260901063103 62 190 2.0 4.0 0.00 0.08 0.00 91 1008.0
20260901061103 61 62 0.0 2.0 0.00 0.12 0.00 92 1008.2
20260901055458 61 187 1.0 3.0 0.00 0.15 0.00 92 1008.1
20260901053508 61 169 1.0 4.0 0.00 0.15 0.00 92 1008.0
20260901051842 61 42 0.0 2.0 0.00 0.15 0.00 93 1008.1
20260901045918 61 205 3.0 4.0 0.00 0.16 0.00 93 1008.0
20260901044046 61 62 1.0 2.0 0.00 0.17 0.00 93 1008.0
20260901042438 60 79 1.0 3.0 0.00 0.17 0.00 93 1008.0
20260901040648 60 35 2.0 4.0 0.00 0.17 0.00 93 1007.9
20260901034838 60 31 1.0 3.0 0.00 0.17 0.00 94 1007.9
20260901033148 60 122 1.0 2.0 0.00 0.17 0.00 94 1007.9
20260901031423 60 33 1.0 3.0 0.00 0.17 0.00 94 1007.9
20260901025528 60 151 1.0 4.0 0.00 0.17 0.00 94 1007.9
20260901023733 60 5 1.0 3.0 0.00 0.17 0.00 95 1007.9
20260901021813 60 15 1.0 3.0 0.00 0.17 0.00 95 1007.8
20260901015923 60 42 1.0 3.0 0.00 0.17 0.00 95 1007.7
20260901013948 60 36 1.0 3.0 0.00 0.17 0.00 95 1007.7
20260901012123 60 178 1.0 3.0 0.00 0.17 0.00 94 1007.8
20260901010508 60 111 1.0 4.0 0.00 0.17 0.00 94 1007.9
20260901004808 60 59 2.0 4.0 0.00 0.17 0.00 92 1008.2
20260901003057 60 51 2.0 4.0 0.00 0.17 0.00 92 1008.1
20260901001403 60 74 1.0 4.0 0.00 0.17 0.00 91 1008.1
20260831235653 60 65 1.0 4.0 0.00 0.17 0.00 91 1008.2
20260831233923 60 23 2.0 4.0 0.00 0.17 0.00 92 1008.3
20260831232247 60 199 3.0 7.0 0.00 0.17 0.00 91 1008.3